When you browse on this site, cookies collect data to enhance your experience and personalize the content and advertising you see.
Visit our Privacy Policy to learn more. By continuing to use the site, you agree to this use of cookies and data.
  • In Switzerland
  • List of Countries
  • For 7 days
  • Water Temperature
  • Satellite Maps
  • Weather Map
  • Weather Widgets
  • user-avatar
    Login

    Hourly Weather Brisbane

    Today, 20 March, Wednesday

    Time Temperature Precipitation Wind Pressure Humidity
    00:00 +25°C° 0 mm 2 mps 756 mmHg 80%
    01:00 +25°C° 0 mm 2 mps 756 mmHg 80%
    02:00 +24°C° 0 mm 2 mps 756 mmHg 81%
    03:00 +24°C° 0 mm 1 mps 756 mmHg 81%
    04:00 +24°C° 0 mm 1 mps 756 mmHg 81%
    05:00 +24°C° 0 mm 1 mps 756 mmHg 80%
    06:00 +24°C° 0 mm 1 mps 757 mmHg 78%
    07:00 +25°C° 0 mm 1 mps 757 mmHg 77%
    08:00 +28°C° 0 mm 1 mps 757 mmHg 66%
    09:00 +30°C° 0 mm 1 mps 757 mmHg 55%
    10:00 +31°C° 0 mm 0 mps 757 mmHg 45%
    11:00 +34°C° 0 mm 1 mps 756 mmHg 41%
    12:00 +36°C° 0 mm 2 mps 756 mmHg 38%
    13:00 +37°C° 0 mm 2 mps 756 mmHg 34%
    14:00 +35°C° 0 mm 3 mps 755 mmHg 43%
    15:00 +33°C° 0 mm 4 mps 755 mmHg 52%
    16:00 +32°C° 0 mm 5 mps 755 mmHg 62%
    17:00 +29°C° 0.1 mm 4 mps 755 mmHg 68%
    18:00 +28°C° 0.1 mm 4 mps 756 mmHg 75%
    19:00 +27°C° 0.1 mm 3 mps 756 mmHg 82%
    20:00 +27°C° 0.7 mm 3 mps 757 mmHg 84%
    21:00 +26°C° 0.7 mm 3 mps 757 mmHg 85%
    22:00 +26°C° 0.7 mm 3 mps 757 mmHg 87%
    23:00 +25°C° 0.7 mm 3 mps 757 mmHg 88%

    Tomorrow, 21 March, Thursday

    Time Temperature Precipitation Wind Pressure Humidity
    00:00 +25°C° 0.7 mm 2 mps 757 mmHg 89%
    01:00 +25°C° 0.7 mm 2 mps 757 mmHg 89%
    02:00 +24°C° 0.2 mm 2 mps 757 mmHg 90%
    03:00 +24°C° 0.2 mm 2 mps 757 mmHg 91%
    04:00 +24°C° 0.2 mm 2 mps 757 mmHg 91%
    05:00 +24°C° 0 mm 1 mps 758 mmHg 90%
    06:00 +24°C° 0 mm 1 mps 758 mmHg 89%
    07:00 +25°C° 0 mm 1 mps 758 mmHg 87%
    08:00 +26°C° 0.2 mm 1 mps 758 mmHg 82%
    09:00 +28°C° 0.2 mm 1 mps 759 mmHg 76%
    10:00 +29°C° 0.2 mm 2 mps 759 mmHg 71%
    11:00 +30°C° 0.5 mm 2 mps 758 mmHg 69%
    12:00 +30°C° 0.5 mm 2 mps 758 mmHg 68%
    13:00 +31°C° 0.5 mm 2 mps 758 mmHg 66%
    14:00 +30°C° 0.5 mm 3 mps 757 mmHg 67%
    15:00 +30°C° 0.5 mm 3 mps 757 mmHg 68%
    16:00 +30°C° 0.5 mm 3 mps 757 mmHg 69%
    17:00 +29°C° 0.4 mm 3 mps 757 mmHg 73%
    18:00 +28°C° 0.4 mm 3 mps 758 mmHg 77%
    19:00 +27°C° 0.4 mm 3 mps 758 mmHg 82%
    20:00 +26°C° 0.9 mm 2 mps 759 mmHg 83%
    21:00 +26°C° 0.9 mm 2 mps 759 mmHg 84%
    22:00 +26°C° 0.9 mm 2 mps 760 mmHg 86%
    23:00 +25°C° 1.5 mm 2 mps 759 mmHg 87%

    Day after tomorrow, 22 March, Friday

    Time Temperature Precipitation Wind Pressure Humidity
    00:00 +25°C° 1.5 mm 1 mps 759 mmHg 89%
    01:00 +25°C° 1.5 mm 1 mps 759 mmHg 91%
    02:00 +24°C° 0.3 mm 1 mps 759 mmHg 91%
    03:00 +24°C° 0.3 mm 1 mps 759 mmHg 92%
    04:00 +24°C° 0.3 mm 1 mps 759 mmHg 92%
    05:00 +24°C° 0 mm 1 mps 759 mmHg 92%
    06:00 +24°C° 0 mm 1 mps 760 mmHg 91%
    07:00 +25°C° 0 mm 1 mps 760 mmHg 90%
    08:00 +27°C° 0 mm 1 mps 760 mmHg 81%
    09:00 +29°C° 0 mm 1 mps 761 mmHg 71%
    10:00 +31°C° 0 mm 2 mps 761 mmHg 61%
    11:00 +30°C° 0.5 mm 2 mps 760 mmHg 63%
    12:00 +30°C° 0.5 mm 2 mps 760 mmHg 65%
    13:00 +30°C° 0.5 mm 3 mps 759 mmHg 66%
    14:00 +30°C° 0.1 mm 3 mps 759 mmHg 65%
    15:00 +30°C° 0.1 mm 3 mps 758 mmHg 64%
    16:00 +30°C° 0.1 mm 3 mps 758 mmHg 62%
    17:00 +29°C° 0 mm 3 mps 758 mmHg 67%
    18:00 +28°C° 0 mm 2 mps 759 mmHg 72%
    19:00 +26°C° 0 mm 2 mps 759 mmHg 77%
    20:00 +26°C° 0 mm 2 mps 760 mmHg 79%
    21:00 +26°C° 0 mm 2 mps 760 mmHg 81%
    22:00 +25°C° 0 mm 2 mps 760 mmHg 82%
    23:00 +25°C° 0.2 mm 2 mps 760 mmHg 84%

    23 March, Saturday

    Time Temperature Precipitation Wind Pressure Humidity
    00:00 +25°C° 0.2 mm 1 mps 760 mmHg 87%
    01:00 +25°C° 0.2 mm 1 mps 759 mmHg 89%
    02:00 +24°C° 0 mm 1 mps 759 mmHg 89%
    03:00 +24°C° 0 mm 1 mps 759 mmHg 89%
    04:00 +24°C° 0 mm 1 mps 759 mmHg 90%
    05:00 +25°C° 0 mm 1 mps 759 mmHg 89%
    06:00 +25°C° 0 mm 1 mps 760 mmHg 89%
    07:00 +25°C° 0 mm 1 mps 760 mmHg 89%
    08:00 +27°C° 0 mm 1 mps 760 mmHg 79%
    09:00 +29°C° 0 mm 1 mps 760 mmHg 69%
    10:00 +31°C° 0 mm 1 mps 760 mmHg 59%
    11:00 +32°C° 0 mm 1 mps 760 mmHg 55%
    12:00 +35°C° 0 mm 2 mps 759 mmHg 50%
    13:00 +36°C° 0 mm 2 mps 758 mmHg 46%
    14:00 +35°C° 0.1 mm 3 mps 758 mmHg 51%
    15:00 +33°C° 0.1 mm 3 mps 758 mmHg 57%
    16:00 +32°C° 0.1 mm 4 mps 758 mmHg 62%
    17:00 +30°C° 0.1 mm 4 mps 758 mmHg 68%
    18:00 +28°C° 0.1 mm 3 mps 758 mmHg 75%
    19:00 +27°C° 0.1 mm 3 mps 759 mmHg 81%
    20:00 +26°C° 0 mm 3 mps 759 mmHg 83%
    21:00 +26°C° 0 mm 2 mps 760 mmHg 85%
    22:00 +26°C° 0 mm 2 mps 760 mmHg 87%
    23:00 +25°C° 0 mm 2 mps 760 mmHg 88%

    24 March, Sunday

    Time Temperature Precipitation Wind Pressure Humidity
    00:00 +25°C° 0 mm 2 mps 760 mmHg 89%
    01:00 +25°C° 0 mm 1 mps 759 mmHg 90%
    02:00 +24°C° 0 mm 1 mps 759 mmHg 90%
    03:00 +24°C° 0 mm 1 mps 759 mmHg 90%
    04:00 +24°C° 0 mm 1 mps 759 mmHg 91%
    05:00 +24°C° 0 mm 1 mps 760 mmHg 89%
    06:00 +25°C° 0 mm 1 mps 760 mmHg 87%
    07:00 +25°C° 0 mm 1 mps 760 mmHg 85%
    08:00 +27°C° 0 mm 1 mps 760 mmHg 74%
    09:00 +30°C° 0 mm 1 mps 760 mmHg 63%
    10:00 +33°C° 0 mm 1 mps 760 mmHg 52%
    11:00 +34°C° 0 mm 1 mps 759 mmHg 49%
    12:00 +36°C° 0 mm 2 mps 759 mmHg 45%
    13:00 +37°C° 0 mm 2 mps 758 mmHg 42%
    14:00 +36°C° 0 mm 3 mps 758 mmHg 47%
    15:00 +35°C° 0 mm 4 mps 757 mmHg 52%
    16:00 +33°C° 0 mm 5 mps 757 mmHg 57%
    17:00 +32°C° 0 mm 4 mps 758 mmHg 64%
    18:00 +29°C° 0 mm 4 mps 758 mmHg 71%
    19:00 +28°C° 0 mm 4 mps 759 mmHg 77%
    20:00 +27°C° 0 mm 3 mps 759 mmHg 79%
    21:00 +27°C° 0 mm 3 mps 759 mmHg 81%
    22:00 +27°C° 0 mm 2 mps 760 mmHg 83%
    23:00 +26°C° 0 mm 2 mps 759 mmHg 84%

    25 March, Monday

    Time Temperature Precipitation Wind Pressure Humidity
    00:00 +26°C° 0 mm 2 mps 759 mmHg 85%
    01:00 +26°C° 0 mm 2 mps 759 mmHg 86%
    02:00 +26°C° 0 mm 2 mps 759 mmHg 87%
    03:00 +25°C° 0 mm 2 mps 759 mmHg 88%
    04:00 +25°C° 0 mm 2 mps 759 mmHg 89%
    05:00 +25°C° 0 mm 2 mps 760 mmHg 87%
    06:00 +26°C° 0 mm 2 mps 760 mmHg 85%
    07:00 +26°C° 0 mm 2 mps 761 mmHg 84%
    08:00 +28°C° 0 mm 2 mps 760 mmHg 74%
    09:00 +30°C° 0 mm 2 mps 760 mmHg 64%
    10:00 +34°C° 0 mm 2 mps 760 mmHg 55%
    11:00 +35°C° 0 mm 2 mps 759 mmHg 52%
    12:00 +36°C° 0 mm 3 mps 759 mmHg 49%
    13:00 +37°C° 0 mm 3 mps 758 mmHg 46%
    14:00 +36°C° 0 mm 4 mps 758 mmHg 51%
    15:00 +35°C° 0 mm 4 mps 758 mmHg 55%
    16:00 +34°C° 0 mm 5 mps 757 mmHg 60%
    17:00 +32°C° 0.6 mm 4 mps 758 mmHg 69%
    18:00 +29°C° 0.6 mm 4 mps 758 mmHg 78%
    19:00 +27°C° 0.6 mm 4 mps 759 mmHg 86%
    20:00 +27°C° 0.3 mm 3 mps 759 mmHg 87%
    21:00 +26°C° 0.3 mm 3 mps 759 mmHg 87%
    22:00 +26°C° 0.3 mm 3 mps 759 mmHg 88%
    23:00 +26°C° 0 mm 2 mps 759 mmHg 88%
    Show more